Probability
0 0 0 0 0 0 0 0 0 0 0 0 0 0 0 0 0 0 0 0 0 0 0 0 0 0 0 0 0 0 0 0 0 0 0 0 0 0 0 0 0 0 0
0 0 0 0 0 0 0 0 0 0 0 0 0 0 0 0 0 0 0 0 0 0 0 0 0 0 0 0 0 0 0 0 0 0 0 0 0 0 0 0 0 0 0
0 0 0 0 0 0 0 0 0 0 0 0 0 0 0 0 0 0 0 0 0 0 0 0 0 0 0 0 0 0 0 0 0 0 0 0 0 0 0 0 0 0 0
0 0 0 0 0 0 0 0 0 0 0 0 0 0 0 0 0 0 0 0 0 0 0 0 0 0 0 0 0 0 0 0 0 0 0 0 0 0 0 0 0 0 0
0 0 0 0 0 0 0 0 0 0 0 0 0 0 0 0 0 0 0 0 0 0 0 0 0 0 0 0 0 0 0 0 0 0 0 0 0 0 0 0 0 0 0
0 0 0 0 0 0 0 0 0 0 0 0 0 0 0 0 0 0 0 0 0 0 0 0 0 0 0 0 0 0 0 0 0 0 0 0 0 0 0 0 0 0 0
0 0 0 0 0 0 0 0 0 0 0 0 0 0 0 0 0 0 0 0 0 0 0 0 0 0 0 0 0 0 0 0 0 0 0 0 0 0 0 0 0 0 0
0 0 0 0 0 0 0 0 0 0 0 0 0 0 0 0 0 0 0 0 0 0 0 0 0 0 0 0 0 0 0 0 0 0 0 0 0 0 0 0 0 0 0
0 0 0 0 0 0 0 0 0 0 0 0 0 0 0 0 0 0 0 0 0 0 0 0 0 0 0 0 0 0 0 0 0 0 0 0 0 0 0 0 0 0 0
0 0 0 0 0 0 0 0 0 0 0 0 0 0 0 0 0 0 0 0 0 0 0 0 0 0 0 0 0 0 0 0 0 0 0 0 0 0 0 0 0 0 0
0 0 0 0 0 0 0 0 0 0 0 0 0 0 0 0 0 0 0 0 0 0 0 0 0 0 0 0 0 0 0 0 0 0 0 0 0 0 0 0 0 0 0
0 0 0 0 0 0 0 0 0 0 0 0 0 0 0 0 0 0 0 0 0 0 0 0 0 0 0 0 0 0 0 0 0 0 0 0 0 0 0 0 0 0 0
0 0 0 0 0 0 0 0 0 0 0 0 0 0 0 0 0 0 0 0 0 0 0 0 0 0 0 0 0 0 0 0 0 0 0 0 0 0 0 0 0 0 0
0 0 0 0 0 0 0 0 0 0 0 0 0 0 0 0 0 0 0 0 0 0 0 0 0 0 0 0 0 0 0 0 0 0 0 0 0 0 0 0 0 0 0
0 0 0 0 0 0 0 0 0 0 0 0 0 0 0 0 0 0 0 0 0 0 0 0 0 0 0 0 0 0 0 0 0 0 0 0 0 0 0 0 0 0 0
1 0 0 0 0 0 0 0 0 0 0 0 0 0 0 0 0 0 0 0 0 0 0 0 0 0 0 0 0 0 0 0 0 0 0 0 0 0 0 0 0 0 0
7 5 3 2 1 1 0 0 0 0 0 0 0 0 0 0 0 0 0 0 0 0 0 0 0 0 0 0 0 0 0 0 0 0 0 0 0 0 0 0 0 0 0
27 24 19 15 9 5 2 2 2 2 1 0 0 0 1 1 0 0 0 0 0 0 0 0 1 1 1 0 0 0 0 0 0 0 0 0 0 0 0 0 0 0 0
51 48 46 43 35 26 21 18 16 12 9 7 5 4 4 4 2 1 0 0 0 0 1 3 5 7 6 3 1 0 0 0 0 0 0 0 0 0 0 0 0 0 0
61 63 67 70 69 62 56 54 49 42 36 30 24 19 15 11 7 3 1 0 0 1 3 6 11 13 11 6 1 0 0 0 0 0 0 0 0 0 0 0 0 0 0
59 62 68 77 84 84 82 81 78 72 63 52 41 30 22 15 10 5 1 0 0 0 2 6 9 11 9 4 1 0 0 0 0 0 0 0 0 0 0 0 0 0 0
55 57 61 67 75 81 82 82 80 73 61 47 35 25 16 10 7 3 1 0 0 0 1 2 3 4 3 1 0 0 0 0 0 0 0 0 0 0 0 0 0 0 0
52 56 59 59 62 67 69 68 63 53 39 27 18 11 7 4 2 1 0 0 0 0 0 0 0 0 0 0 0 0 0 0 0 0 0 0 0 0 0 0 0 0 0
51 54 56 53 51 52 52 50 44 33 21 12 6 4 2 1 0 0 0 0 0 0 0 0 0 0 0 0 0 0 0 0 0 0 0 0 0 0 0 0 0 0 0
44 45 44 41 37 36 33 31 25 16 7 3 1 1 0 0 0 0 0 0 0 0 0 0 0 0 0 0 0 0 0 0 0 0 0 0 0 0 0 0 0 0 0
34 35 34 30 27 24 21 18 14 6 1 0 0 0 0 0 0 0 0 0 0 0 0 0 0 0 0 0 0 0 0 0 0 0 0 0 0 0 0 0 0 0 0
Wind_Speed
6 9 17 17 16 15 14 14 14 13 13 12 13 13 13 13 12 12 11 9 8 7 7 8 9 9 9 9 9 9 9 9 9 9 8 8 7 8 8 9 9 8 10
12 11 18 17 16 15 14 14 14 13 12 12 12 12 12 11 11 11 10 9 8 7 6 6 7 8 8 8 8 7 7 7 7 7 7 6 6 7 7 8 8 6 9
14 11 15 17 17 15 14 14 13 13 12 12 11 11 11 11 11 11 10 9 8 8 6 5 6 6 7 7 7 7 6 5 5 5 4 2 2 4 5 6 8 8 8
13 11 12 18 17 16 14 13 13 12 12 11 11 11 11 11 11 11 10 9 8 7 7 5 5 5 6 6 6 6 6 5 4 3 2 1 1 1 4 5 6 7 8
10 9 13 20 18 16 14 13 13 12 11 10 10 9 9 9 9 9 9 8 7 6 6 5 5 4 5 6 6 5 5 5 4 3 1 2 2 3 5 6 7 7 7
9 8 12 20 18 17 15 14 13 12 11 10 9 8 8 7 7 7 6 6 5 4 4 4 4 4 4 4 5 5 5 5 4 2 2 3 4 7 9 10 9 9 9
9 8 10 18 18 17 16 15 14 12 11 10 9 8 7 6 6 5 5 5 4 4 4 4 4 4 4 5 5 6 6 6 4 3 3 4 5 9 11 13 12 12 11
10 8 8 18 17 16 16 15 14 13 11 10 9 8 7 7 6 6 5 5 5 4 5 5 5 5 6 6 6 7 7 7 5 3 3 4 7 8 10 12 13 14 14
7 7 6 8 12 15 15 15 14 12 11 10 9 9 8 8 7 7 6 6 6 6 6 7 7 7 7 7 7 8 8 8 6 3 5 4 7 9 10 11 14 15 15
6 6 6 6 6 6 8 13 13 12 11 10 9 9 9 8 8 8 7 7 8 9 9 9 9 9 9 8 9 10 10 9 5 5 4 6 10 11 11 11 13 15 15
8 5 5 5 5 5 5 8 10 11 11 10 8 10 8 4 3 4 7 9 11 12 12 12 12 11 10 9 11 12 10 5 5 5 5 9 12 12 12 11 12 14 15
12 10 6 6 5 5 5 4 3 3 4 4 3 4 3 3 3 5 6 12 13 14 14 14 13 12 10 5 8 10 5 7 6 6 6 12 13 13 13 12 12 13 14
11 10 9 7 6 6 4 3 2 2 3 3 4 4 2 2 2 4 3 6 7 10 7 8 8 5 5 5 5 6 7 7 5 6 7 13 13 14 14 12 11 11 12
9 11 9 9 7 6 5 4 4 3 3 3 4 4 3 3 3 3 4 4 5 4 5 6 5 6 7 7 8 8 9 7 6 5 7 14 14 14 13 11 10 10 11
11 11 10 10 9 7 6 4 4 4 4 4 3 4 5 4 5 5 4 5 6 5 6 6 5 6 7 7 7 8 9 9 9 8 6 13 14 13 13 12 10 11 11
12 12 10 11 10 8 7 5 5 5 4 4 4 6 7 6 6 5 6 5 6 6 6 5 6 5 6 6 8 8 9 9 9 9 8 9 14 14 13 12 11 11 11
12 12 12 12 11 10 9 8 6 5 5 5 6 7 8 8 7 7 6 6 6 6 6 5 6 5 5 6 8 9 8 9 9 9 9 7 8 11 13 12 12 11 12
10 11 12 11 12 12 10 9 6 6 6 6 6 6 8 8 8 6 6 7 6 4 4 5 5 4 5 6 7 7 7 7 9 9 8 8 7 7 10 13 13 12 13
11 10 11 10 11 12 11 8 7 6 6 5 5 5 6 7 7 6 6 6 5 4 4 5 5 5 5 6 7 7 7 7 8 9 9 9 8 8 7 9 12 12 13
7 8 9 9 9 9 7 4 3 3 3 3 3 3 4 4 4 4 4 5 4 3 4 4 6 5 5 6 7 8 7 8 7 8 9 8 8 9 9 8 7 8 12
3 4 5 6 6 5 4 5 4 3 2 2 2 2 2 2 1 1 1 2 2 3 5 5 5 6 5 4 4 6 6 8 8 8 7 7 8 8 8 8 6 6 5
1 1 1 3 3 5 4 4 3 3 2 2 2 1 1 1 1 1 1 2 2 3 5 5 5 5 4 4 4 4 4 4 5 6 5 6 7 5 6 7 7 7 6
1 0 2 2 3 3 3 1 2 2 1 2 1 0 1 2 2 2 2 2 3 3 4 6 6 8 7 4 5 5 4 4 3 3 3 3 3 3 3 4 6 6 7
0 2 4 4 3 3 3 2 3 3 3 3 2 1 1 1 2 2 3 3 3 3 4 6 6 6 8 7 4 6 7 4 4 4 3 2 2 2 2 3 4 4 5
1 2 4 5 5 4 4 5 5 3 2 2 2 2 1 0 1 2 3 3 3 3 4 5 6 6 5 7 6 4 6 6 6 5 5 3 2 2 2 3 3 4 4
1 0 1 2 2 3 5 4 3 4 4 4 3 2 1 0 1 3 3 3 3 3 4 4 4 5 4 5 5 4 4 4 4 5 6 4 3 3 3 3 3 3 4
Wind_Direction
161 158 159 154 148 142 137 134 131 128 127 126 126 128 132 136 138 139 139 139 136 129 119 111 107 107 108 109 110 113 116 121 125 123 119 119 125 126 122 117 111 107 107
150 156 159 156 152 149 144 141 138 136 135 134 132 132 134 136 137 137 138 139 139 136 129 123 120 119 119 120 120 120 121 126 134 135 124 115 121 134 135 130 127 124 118
146 155 158 159 158 156 152 148 146 145 144 142 140 138 138 141 143 143 142 143 144 142 139 136 137 138 137 137 138 140 139 140 143 145 123 86 99 139 155 146 145 140 133
147 152 157 163 164 163 160 157 154 153 153 150 147 145 145 148 152 153 151 152 152 151 150 150 153 155 156 157 159 162 164 166 171 171 135 183 268 176 185 178 169 162 152
145 151 163 165 168 168 167 166 165 164 162 159 154 153 153 155 158 160 161 163 165 168 169 171 172 171 172 177 180 186 192 194 206 217 216 254 273 260 225 212 205 195 180
144 150 169 167 170 172 174 175 176 175 173 169 166 165 164 164 166 168 172 176 181 188 197 201 203 200 198 203 209 216 224 229 232 243 259 267 266 264 250 228 219 215 205
149 156 173 171 174 176 178 180 183 183 181 180 178 178 179 179 181 185 190 195 202 209 220 227 230 232 233 236 238 242 247 254 247 234 250 260 269 271 262 233 220 219 215
156 159 171 175 177 180 182 185 187 189 188 188 189 192 194 197 201 203 212 219 223 224 227 235 242 246 250 254 256 258 260 264 266 246 240 251 271 281 273 235 218 220 219
155 157 168 174 180 185 187 190 192 194 195 195 197 200 205 212 215 218 228 238 243 244 243 245 251 257 260 261 265 267 269 269 266 246 254 249 264 275 275 249 225 224 224
159 165 167 164 168 177 189 196 197 200 204 204 205 207 213 221 227 233 237 248 253 253 253 253 256 260 264 265 269 272 273 275 267 257 253 252 261 268 272 262 240 234 232
180 179 173 168 163 161 173 198 199 204 209 211 215 218 218 222 239 252 252 252 256 258 259 259 261 263 264 265 268 272 276 264 258 260 258 260 264 268 271 268 253 243 239
190 189 182 176 167 159 177 181 182 191 196 203 203 223 217 203 224 241 258 262 265 266 266 265 263 265 267 261 267 273 269 265 264 262 262 265 266 267 267 264 258 248 244
189 190 189 181 169 166 170 163 172 176 183 198 205 212 216 220 234 247 255 268 273 277 273 269 269 260 254 253 258 262 264 265 262 262 263 267 267 266 267 267 264 252 246
183 192 187 182 177 178 175 177 180 182 191 203 208 208 206 221 233 238 244 252 260 263 263 259 253 252 254 255 258 264 267 263 259 257 260 268 269 268 271 272 266 254 248
188 190 185 183 185 185 184 188 189 196 204 209 210 214 210 221 236 239 245 249 255 258 258 257 252 254 258 261 260 261 265 265 264 260 261 268 269 268 270 266 258 250 248
193 192 186 188 190 187 191 194 198 201 208 208 217 224 219 224 232 236 245 249 252 250 248 246 247 253 262 265 267 263 262 265 264 261 258 263 264 262 261 258 254 249 250
195 192 189 193 191 190 194 199 204 205 204 213 225 226 224 225 229 233 242 250 252 247 244 246 253 255 263 266 268 266 264 262 262 260 257 253 257 258 255 251 249 249 250
193 192 194 195 191 194 195 197 205 206 208 219 224 226 227 228 229 230 237 248 248 240 235 238 243 250 256 260 266 270 267 264 264 261 258 252 248 249 248 244 244 245 246
197 194 193 195 191 196 197 196 200 201 206 213 213 215 223 224 222 219 232 244 244 238 236 242 242 235 251 257 262 269 269 266 264 264 260 254 247 241 239 239 239 242 246
203 200 199 198 194 189 188 180 179 186 193 196 202 206 206 213 215 209 227 243 242 242 248 245 253 250 249 258 269 272 271 269 264 259 259 257 250 243 235 232 233 239 241
209 211 205 199 193 175 172 173 172 183 178 175 179 193 192 192 188 195 240 266 260 252 256 256 259 263 258 245 260 272 267 261 257 255 250 250 251 245 233 228 226 226 233
254 232 194 201 195 190 189 177 167 156 161 145 129 115 62 54 31 4 315 294 283 274 273 264 256 262 258 225 234 265 286 292 265 252 246 244 250 243 238 231 223 222 226
334 266 170 186 189 196 186 148 116 116 118 131 152 161 337 1 15 355 325 313 299 283 279 276 264 261 268 252 222 230 242 251 294 292 267 256 254 248 248 242 234 230 227
178 153 156 156 154 155 155 174 201 201 189 181 174 180 260 332 0 1 351 341 325 310 294 286 276 264 266 268 247 227 231 227 233 285 298 283 280 263 276 274 263 252 237
82 142 159 158 155 152 159 173 197 203 190 147 137 171 207 306 19 18 6 1 353 337 319 307 300 284 270 268 262 248 241 237 228 234 268 287 304 284 278 282 280 272 259
33 32 197 178 163 161 149 148 167 166 153 144 157 181 192 237 41 23 13 12 2 350 338 329 320 314 300 284 274 255 242 235 221 222 238 254 271 282 287 283 277 276 272